Regional Weather Roundup
Issued by NWS State College, PA

Home | Current Version | Previous Version | Text Only | Print | Product List | Glossary On
Versions: 1 2 3 4 5 6 7 8 9 10 11 12 13 14 15 16 17 18 19 20 21 22 23 24 25 26 27 28 29 30 31 32 33 34 35 36 37 38 39 40 41 42 43 44 45 46 47 48 49 50
000
ASUS41 KCTP 011310
RWRCTP

REGIONAL WEATHER ROUNDUP
NATIONAL WEATHER SERVICE STATE COLLEGE PA
800 AM EST SUN FEB 01 2015

Note: "fair" indicates few or no clouds below 12,000 feet with no
significant weather and/or obstructions to visibility.

* = STATION THAT DOES NOT REPORT PRECIPITATION /E.G. RAIN...SNOW...ETC/
    THUNDER OR FOG.

PAZ002>004-007>009-013>016-020>023-029>032-011400-
WESTERN PENNSYLVANIA

CITY           SKY/WX    TMP DP  RH WIND       PRES   REMARKS
ERIE           LGT SNOW  27  23  85 CALM      30.17S VSB 3/4
MEADVILLE      SNOW      25  22  88 CALM      30.12S VSB 1/2
FRANKLIN*      CLOUDY    23  19  86 S3        30.14F
NEW CASTLE     LGT SNOW  25  24  96 CALM      30.16F FOG
BEAVER COUNTY  NOT AVBL
BUTLER*        CLOUDY    25  23  93 S3        30.17S
PITTSBURGH INT LGT SNOW  27  25  92 S3        30.16F VSB 1
PITTSBURGH     LGT SNOW  25  21  85 S7        30.16F VSB 1
INDIANA*       CLOUDY    25  23  93 CALM      30.20S FOG
LATROBE        LGT SNOW  27  27 100 SW9       30.20S
WASHINGTON CO* CLOUDY    27  25  93 CALM      30.18S
$$

PAZ004>006-010>012-017>019-024>028-033>037-041-042-045-046-049>053-011400-
CENTRAL PENNSYLVANIA

CITY           SKY/WX    TMP DP  RH WIND       PRES   REMARKS
BRADFORD       LGT SNOW  21  17  84 CALM      30.09S FOG
DUBOIS         LGT SNOW  22  19  89 SW3       30.12R FOG
CLEARFIELD     LGT SNOW  20  15  81 CALM      30.15S
JOHNSTOWN      CLOUDY    24  19  81 SW7       30.11R HAZE
ALTOONA        CLOUDY    26  17  68 SW8       30.16S
STATE COLLEGE  CLOUDY    25  18  74 CALM      30.17S
WILLIAMSPORT   CLOUDY    23  14  68 CALM      30.21R
SELINSGROVE    CLOUDY    23  17  78 CALM      30.23R
FT INDIANTOWN  CLOUDY    23  15  74 CALM      30.23S
CAPITAL CITY   CLOUDY    25  17  72 CALM      30.24S
HARRISBURG     FLURRIES  23  16  74 E3        30.24R
YORK           CLOUDY    26  18  71 CALM      30.23S
$$

PAZ038>040-043-044-047-048-054-055-060>062-067>071-011400-
EASTERN PENNSYLVANIA

CITY           SKY/WX    TMP DP  RH WIND       PRES   REMARKS
SCRANTON       CLOUDY    23  13  65 SW6       30.16R
MOUNT POCONO   CLOUDY    20  14  77 W8        30.09R WCI  10
ALLENTOWN      CLOUDY    26  15  63 SW6       30.22R
QUAKERTOWN*    CLOUDY    25  16  68 CALM      30.22S
READING        CLOUDY    24  16  71 CALM      30.23R
LANCASTER      CLOUDY    22  15  75 CALM      30.24R
COATESVILLE    PTSUNNY   28  16  59 CALM      30.23S
POTTSTOWN      CLOUDY    26  13  57 CALM      30.25R
BLUE BELL      CLOUDY    30  18  59 CALM      30.23S
DOYLESTOWN     CLOUDY    24  14  65 SW5       30.22R
WILLOW GROVE   NOT AVBL
NORTH PHILA    CLOUDY    30  13  49 CALM      30.27R
PHILADELPHIA   CLOUDY    27  15  61 S5        30.27R
$$



USA.gov is the U.S. government's official web portal to all federal, state and local government web resources and services.